Hourly Data Report for June 24, 2022

OTTAWA INTL A
ONTARIO
Current Station Operator: NAVCAN

45°19'00.000" N
75°40'00.000" W
114.90 m
6106001
71628
YOW

Download Data

Hourly Data (June 2022)
Hourly Data Report for June 24, 2022
TIME
LST
Temp Definition
°C
Dew Point Definition
°C
Rel Hum Definition
%
Precip. Amount Definition
mm

Wind Dir Definition
10's deg

Wind Spd Definition
km/h
Visibility Definition
km
Stn Press Definition
kPa
Hmdx Definition


Wind Chill Definition


Weather Definition


00:00 16.0 15.9 100   10 8 24.1 100.09     LegendNANA
01:00 15.2 15.2 100   11 8 16.1 100.09     Mostly Cloudy
02:00 13.8 13.8 100   14 7 24.1 100.10     LegendNANA
03:00 14.5 14.5 100   14 7 16.1 100.09     LegendNANA
04:00 14.0 14.0 100   18 3 24.1 100.12     Clear
05:00 14.0 14.0 100   36 3 24.1 100.15     LegendNANA
06:00 16.3 16.3 100   2 4 24.1 100.20     LegendNANA
07:00 18.1 17.1 94   6 8 24.1 100.26     Mainly Clear
08:00 18.7 17.2 91   7 5 24.1 100.30     LegendNANA
09:00 20.9 17.9 83   5 8 24.1 100.29 27   LegendNANA
10:00 21.9 17.7 77   36 3 24.1 100.27 28   Mostly Cloudy
11:00 23.8 18.2 71   36 2 24.1 100.26 30   LegendNANA
12:00 25.4 16.0 55   26 7 24.1 100.24 30   LegendNANA
13:00 26.3 13.3 44   22 12 24.1 100.18 29   Mostly Cloudy
14:00 26.7 11.5 38   26 15 24.1 100.19 29   LegendNANA
15:00 27.0 12.0 39   30 6 24.1 100.18 29   LegendNANA
16:00 27.0 12.9 41   29 3 24.1 100.18 30   Mostly Cloudy
17:00 26.2 14.6 48   12 7 24.1 100.19 30   LegendNANA
18:00 25.4 16.9 59   15 7 24.1 100.20 31   LegendNANA
19:00 24.7 18.5 68   14 7 24.1 100.24 31   Mostly Cloudy
20:00 22.4 17.4 73   16 8 24.1 100.24 28   LegendNANA
21:00 21.6 16.6 73   18 7 24.1 100.28 27   LegendNANA
22:00 20.9 15.8 72   19 9 24.1 100.30 25   Mainly Clear
23:00 19.9 15.2 74   19 9 24.1 100.31     LegendNANA

Notes on Data Quality.

Legend

  • E = Estimated
  • M = Missing
  • NA = Not Available*
  • [empty] = Indicates an unobserved value
Date modified: